Location: Blachownia
(50.7807°N, 18.9578°E)
Time: 07:08:06
(UTC+01:00)

ISS - Pass Details

Date: 01 February 2019
Orbit: 403 x 411 km, 51.6° (Epoch: 18 February)

Event Time Altitude Azimuth Distance (km) Brightness Sun altitude
Rises 18:56:18 0° 282° (WNW) 2,339 1.4 -22.3°
Reaches altitude 10° 18:58:23 10° 282° (WNW) 1,478 0.1 -22.6°
Enters shadow 19:00:51 47° 281° (W) 557 -2.8 -23.0°
